Location: ???? ???? ?????
(31.2680°N, 31.7283°E)
Time: 09:47:27
(UTC+00:00)

Cosmos 44 - Pass Details

Date: 13 July 2020
Orbit: 587 x 775 km, 65.1° (Epoch: 07 August)

Event Time Altitude Azimuth Distance (km) Brightness Sun altitude
Rises 18:28:56 0° 201° (SSW) 2,802 6.2 -17.0°
Reaches altitude 10° 18:31:10 10° 200° (SSW) 1,900 5.4 -17.3°
Maximum altitude 18:35:24 73° 116° (ESE) 616 2.8 -18.0°
Drops below altitude 10° 18:39:43 10° 31° (NNE) 1,932 5.7 -18.7°
Sets 18:41:59 0° 30° (NNE) 2,854 6.6 -19.1°
